Location: North Bay Shore
(40.7362°N, 73.2626°W)
Time: 09:48:43
(UTC+00:00)

USA 308 - Pass Details

Date: 29 October 2020
Orbit: 571 x 578 km, 54.0° (Epoch: 23 November)

Event Time Altitude Azimuth Distance (km) Brightness Sun altitude
Rises 23:33:04 0° 312° (NW) 2,784 7.1 -19.6°
Reaches altitude 10° 23:35:22 10° 316° (NW) 1,882 6.1 -20.0°
Maximum altitude 23:39:36 60° 37° (NE) 656 2.9 -20.8°
Enters shadow 23:39:53 59° 58° (ENE) 666 2.9 -20.9°
